Location: Stuttgart
(48.8069°N, 9.1544°E)
Time: 03:12:58
(UTC+02:00)

ISS - Pass Details

Date: 11 May 2021
Orbit: 417 x 422 km, 51.6° (Epoch: 15 June)

Event Time Altitude Azimuth Distance (km) Brightness Sun altitude
Exits shadow 02:03:10 47° 48° (NE) 571 -2.8 -22.6°
Drops below altitude 10° 02:05:45 10° 69° (ENE) 1,510 -0.5 -22.5°
Sets 02:07:52 0° 72° (ENE) 2,377 0.5 -22.5°
